STARLINK-35057

Last updated on Tue Oct 07 2025 00:02:05 GMT+0000 (Coordinated Universal Time)

1 65525U 25200F 25279.50003471 .00146989 00000+0 26618-2 0 9998 2 65525 97.6039 346.2065 0001603 92.4743 359.3749 15.49105249 5863

Satellite not in orbit

STARLINK-35057